Regional Weather Roundup
Issued by NWS Grand Forks, ND

Home | Current Version | Previous Version | Graphics & Text | Print | Product List | Glossary On
Versions: 1 2 3 4 5 6 7 8 9 10 11 12 13 14 15 16 17 18 19 20 21 22 23 24 25 26 27 28 29 30 31 32 33 34 35 36 37 38 39 40 41 42 43 44 45 46 47 48 49 50
000
ASUS43 KFGF 221010
RWRFGF
PRAIRIE TO PINES  WEATHER ROUNDUP
NATIONAL WEATHER SERVICE EASTERN NORTH DAKOTA/GRAND FORKS ND
500 AM CDT TUE JUL 22 2014

 **SATELLITE DATA USED TO AUGMENT SKY COVER AT AUTOMATED STATIONS**
 *****  WEATHER ACROSS EASTERN NORTH DAKOTA  *****

CITY           SKY/WX    TMP DP  RH WIND       PRES   REMARKS
GRAND FORKS    CLOUDY    63  61  93 NW8       29.94R
GRAND FRKS AFB MOCLDY    63  63 100 NW13      29.96R
GRAND FRKS NWS   N/A     63 N/A N/A NW5         N/A
DEVILS LAKE    PTCLDY    61  55  82 NW7       30.00R
FARGO          CLOUDY    67  63  87 NW14      29.95R
WAHPETON ARPT  CLOUDY    64  61  88 NW12      29.96R
$$

 ***** WEATHER ACROSS CENTRAL AND WESTERN NORTH DAKOTA  *****

CITY           SKY/WX    TMP DP  RH WIND       PRES   REMARKS
BISMARCK       CLOUDY    63  62  97 NW5       30.07S
MINOT          CLEAR     60  58  92 W8        30.07R
JAMESTOWN      CLOUDY    65  62  90 NW12      30.02R
MINOT AFB      CLEAR     59  59 100 NW7       30.07R
GARRISON         N/A     57  57 100 N6        30.08R
WILLISTON      PTCLDY    57  56  96 CALM      30.09R
DICKINSON      FOG       55  54  96 W7        30.10R VSB 3/4
HETTINGER      MOCLDY    59  57  93 W3        30.12R FOG
$$

 *****  OTHER AIRPORT OBSERVATIONS IN OUR AREA  *****

CITY           SKY/WX    TMP DP  RH WIND       PRES   REMARKS
WALHALLA         N/A     59  59 100 NW8         N/A
GRAFTON AIRPOR FAIR      63  63 100 NW10      29.95R
VALLEY CITY AR PTSUNNY   64  64 100 NW8       30.00R
CANDO          FAIR      57  57 100 NW7       30.04R
CAVALIER APRT  FAIR      63  59  88 NW9       29.97R
GWINNER        CLOUDY    66  66 100 W8        30.01R
ROLLA          FAIR      57  57 100 NW7       30.06R
 ***** THE ABOVE OBSERVATIONS ARE NON NWS ARE NOT QUALITY
       CONTROLLED AND MAY MIS-REPORT RAIN FOR SNOW...
$$

  *****  WEATHER ACROSS NORTHERN MINNESOTA  *****

CITY           SKY/WX    TMP DP  RH WIND       PRES   REMARKS
FLAG ISLAND    CLOUDY    64  57  77 N18       29.84R
WARROAD        CLOUDY    59  55  88 NW8       29.88R
ROSEAU         CLOUDY    61  55  82 NW8       29.89R
HALLOCK        CLOUDY    63  61  94 NW10      29.94R
THF RVR FALLS  CLOUDY    63  61  94 NW13      29.92R
BAUDETTE       CLOUDY    65  63  93 NW14      29.82R
WASKISH        CLOUDY    64  64 100 NW12      29.82R
CROOKSTON      NOT AVBL
$$
  *****  WEATHER ACROSS CENTRAL AND WEST MINNESOTA  *****

CITY           SKY/WX    TMP DP  RH WIND       PRES   REMARKS
FOSSTON        CLOUDY    63  61  94 NW15G22   29.91R
BEMIDJI        CLOUDY    63  62  96 W15       29.86R
PARK RAPIDS    MOCLDY    65  63  93 NW13      29.87R
ELBOW LAKE     CLOUDY    65  64  97 NW14G20   29.93R
WADENA         MOCLDY    64  63  94 NW13G20   29.89R
DETROIT LAKES  CLOUDY    64  63  94 NW12G18   29.94R
MOORHEAD       CLOUDY    66  66 100 NW14      29.94R
FERGUS FALLS   CLOUDY    66  64  94 NW9       29.93R
MORRIS MN      PTCLDY    66  64  94 NW14      29.92R
STAPLES        MOCLDY    64  63  94 NW16      29.86R
$$
  *****  WEATHER ELSEWHERE ACROSS MINNESOTA  *****

CITY           SKY/WX    TMP DP  RH WIND       PRES   REMARKS
DULUTH         CLOUDY    69  64  84 W21       29.72S
INTRNTL FALLS  LGT RAIN  65  64  97 NW16      29.73R
ELY            CLOUDY    64  63  94 S6        29.65F
CLOQUET        MOCLDY    68  63  83 W14G20    29.75R
WHEATON        PTCLDY    64  63  94 NW14      29.97R
BRAINERD       MOCLDY    67  64  90 W12       29.82R
HIBBING        LGT RAIN  66  64  93 W7        29.72R
ALEXANDRIA     CLOUDY    67  64  90 NW17      29.92R
SAINT CLOUD    CLEAR     71  63  75 W10G21    29.82R
MINNEAPOLIS    MOCLDY    81  76  84 SW9       29.80S
$$

  *****  WEATHER ACROSS SOUTH DAKOTA  *****

CITY           SKY/WX    TMP DP  RH WIND       PRES   REMARKS
SIOUX FALLS    PTCLDY    71  64  78 W5        29.95R
BROOKINGS      NOT AVBL
WATERTOWN      MOCLDY    67  63  87 NW15      30.02R
HURON          LGT RAIN  67  64  90 E17       29.89F
SISSETON         N/A     65  64  97 N14       29.96R
ABERDEEN       PTCLDY    63  62  97 NW7       30.02R
MITCHELL       LGT RAIN  68  65  90 N10       30.02F
PIERRE         PTCLDY    65  63  93 N14       30.03R
MOBRIDGE       CLOUDY    64  63  96 N10       30.03R
RAPID CITY     MOCLDY    63  61  93 S5        30.14R
$$

  *****  SOME WEATHER IN NEARBY STATES *****

CITY           SKY/WX    TMP DP  RH WIND       PRES   REMARKS
GLASGOW MT     CLEAR     58  54  86 NE6       30.10R
GREAT FALLS MT CLOUDY    61  49  64 E5        30.13S
CHEYENNE WY    CLEAR     67  44  43 NW12G21   30.28S
SCOTTSBLUFF NE CLEAR     70  58  65 NE17      30.13R
OMAHA NE       CLOUDY    87  69  54 S7        29.90R HX  91
DES MOINES IA  CLOUDY    81  74  79 S12       29.91R
DAVENPORT IA   CLEAR     73  66  78 S13       30.01R
CHICAGO IL     CLEAR     71  62  73 S7        30.03F
EAU CLAIRE WI  CLOUDY    79  73  82 SW9       29.82S
LA CROSSE WI   MOCLDY    78  69  73 S10       29.86F
$$

  *****  SOME NATIONAL WEATHER *****

CITY           SKY/WX    TMP DP  RH WIND       PRES   REMARKS
LA GUARDIA NY  PTCLDY    73  60  63 CALM      30.17R
RALEIGH NC     CLOUDY    72  69  90 E6        30.14S FOG
ATLANTA GA     CLOUDY    71  68  90 S3        30.10R
NEW ORLEANS LA MOCLDY    78  73  84 CALM      29.99S
OKLAHOMA CITY  CLOUDY    75  72  90 S8        30.04R
ALBUQUERQUE NM PTCLDY    79  48  33 NE6       30.23R
SALT LAKE CITY PTCLDY    70  47  43 CALM      30.14R
LOS ANGELES CA PTCLDY    67  62  84 SE3       30.02R
BOISE ID       PTCLDY    68  54  60 SE10      30.09R
SEATTLE WA     CLEAR     58  53  84 CALM      30.02F
$$

*** WEATHER ACROSS MANITOBA...SASKATCHEWAN AND ONTARIO ***
                ***ONTARIO***

CITY           SKY/WX    TMP DP  RH WIND       PRES   REMARKS
GERALDTON      CLOUDY    66  64  94 E3        29.80F
THUNDER BAY    LGT RAIN  61  59  94 NE8       29.69F
SIOUX LOOKOUT  LGT RAIN  61  61 100 NE6       29.72F FOG
TORONTO        CLEAR     66  63  88 S2        30.11S
BIG TROUT LK   CLEAR     50  46  87 N7        29.93R
PICKLE LAKE    NOT AVBL
DRYDEN         LGT RAIN  63  61  94 N10       29.76R
KENORA         LGT RAIN  59  55  88 N7        29.86R
$$
                *** MANITOBA***

CITY           SKY/WX    TMP DP  RH WIND       PRES   REMARKS
BRANDON        PTCLDY    57  55  94 NW7       30.05R
DAUPHIN        CLEAR     55  54  94 W9        30.04R
ISLAND LAKE    CLOUDY    54  50  87 NE6       30.00R
PILOT MOUND      N/A     57  55  94 NW7         N/A
THE PAS        PTCLDY    55  52  88 NE2       30.10R
THOMPSON       PTCLDY    39  39 100 W2        30.09R
WINNIPEG       MOCLDY    57  55  94 NW8       29.97R
LYNN LAKE      MOCLDY    48  46  93 NW3       30.11R
CHURCHILL      MOCLDY    50  46  87 NW8       30.02R
GILLAM         PTCLDY    50  48  93 N12       30.05R
$$
                ***SASKATCHEWAN***

CITY           SKY/WX    TMP DP  RH WIND       PRES   REMARKS
ESTEVAN        MOCLDY    61  59  94 CALM      30.10R
KINDERSLEY     PTCLDY    54  52  94 N5        30.14R
LLOYDMINSTER   CLEAR     48  45  87 SW3       30.13R
PRINCE ALBERT  MOCLDY    48  48 100 NE2       30.11R FOG
REGINA         PTCLDY    55  54  94 N7        30.11R
YORKTON        CLEAR     52  50  93 W6        30.09R
N. BATTLEFORD  FOG       46  46 100 SW3       30.15R VSB 1/4
LA RONGE       PTCLDY    46  45  93 CALM      30.12R
SASKATOON      CLEAR     54  52  94 SW6       30.13R
SWIFT CURRENT  PTCLDY    48  48 100 S3        30.15R FOG
$$
NOTE: THESE ARE AUTOMATED STATIONS WITH LIMITED QUALITY CONTROL
      "FAIR" INDICATES FEW OR NO CLOUDS BELOW 12,000 FEET WITH NO
      SIGNIFICANT WEATHER AND/OR OBSTRUCTIONS TO VISIBILITY.
      SKY/WX - SKY CONDITION AND SIGNIFICANT WEATHER.
      TMP - AIR TEMPERATURE.    DP   - DEWPOINT TEMPERATURE.
      RH  - RELATIVE HUMIDITY.  PRES - PRESSURE.
      HX  - HEAT INDEX.         WCI  - WIND CHILL INDEX.
$



USA.gov is the U.S. government's official web portal to all federal, state and local government web resources and services.